Regional Weather Roundup
Issued by NWS

Home | Current Version | Previous Version | Graphics & Text | Print | Product List | Glossary On
Versions: 1 2 3 4 5 6 7 8 9 10 11 12 13 14 15 16 17 18 19 20 21 22 23 24 25 26 27 28 29 30 31 32 33 34 35 36 37 38 39 40 41 42 43 44 45 46 47 48 49 50
000
ASUS44 KMEG 192210
RWRTN
TENNESSEE HOURLY STATE WEATHER ROUNDUP
NATIONAL WEATHER SERVICE MEMPHIS TN
500 PM CDT THU OCT 19 2017

TNZ002-004-019-021-049-052-054-088>092-192300-
WEST TENNESSEE

CITY           SKY/WX    TMP DP  RH WIND       PRES   REMARKS
MEMPHIS INTL   MOSUNNY   75  49  39 SE8       30.19F
NWS MEMPHIS      N/A     75 N/A N/A MISG        N/A
JACKSON        SUNNY     75  51  43 CALM      30.21S
SOMERVILLE     SUNNY     75  52  43 CALM      30.19S
COVINGTON      SUNNY     75  48  38 SE5       30.19F
UNION CITY     SUNNY     75  48  38 S7        30.19S
BOLIVAR        SUNNY     75  50  41 E5        30.20S
PARIS          SUNNY     73  50  43 VRB5      30.20S
HUNTINGDON     SUNNY     75  48  38 SE5       30.20S
LEXINGTON      SUNNY     75  48  38 S3        30.21F
SELMER         SUNNY     73  48  40 CALM      30.20F
SAVANNAH       SUNNY     77  48  36 CALM      30.20F
$$

TNZ008-025-027-028-033-062-065-066-192300-
NORTH MIDDLE TENNESSEE

CITY           SKY/WX    TMP DP  RH WIND       PRES   REMARKS
NASHVILLE      MOSUNNY   74  45  35 SE5       30.23F
PORTLAND       SUNNY     72  46  40 S6        30.22S
CLARKSVILLE    SUNNY     74  48  39 S5        30.21F
SMYRNA         SUNNY     74  45  35 SE6       30.24S
COOKEVILLE     SUNNY     70  45  40 CALM      30.24S
GALLATIN       SUNNY     75  45  33 CALM      30.25S
CROSSVILLE     SUNNY     69  43  38 CALM      30.27S
$$

TNZ061-075-076-078-094-096-097-192300-
SOUTH MIDDLE TENNESSEE

CITY           SKY/WX    TMP DP  RH WIND       PRES   REMARKS
FAYETTEVILLE   SUNNY     72  41  33 E3        30.23S
TULLAHOMA      SUNNY     72  37  28 CALM      30.26S
WINCHESTER     SUNNY     72  43  35 CALM        N/A
COLUMBIA       SUNNY     75  45  33 CALM      30.21S
SHELBYVILLE    SUNNY     73  43  33 CALM      30.23F
$$

TNZ017-018-042-046-047-192300-
NORTHEAST TENNESSEE

CITY           SKY/WX    TMP DP  RH WIND       PRES   REMARKS
TRI CITIES     CLEAR     70  42  36 W6        30.25F
ELIZABETHTON   CLEAR     68  45  42 W3        30.25S
$$

TNZ012-013-036-069-073-074-192300-
CENTRAL EAST TENNESSEE

CITY           SKY/WX    TMP DP  RH WIND       PRES   REMARKS
KNOXVILLE      PTCLDY    71  44  37 CALM      30.24S
OAK RIDGE      CLEAR     70  46  42 CALM      30.26S
DOWNTOWN KNOXV CLEAR     66  52  59 CALM      30.25S
GATLINBURG     CLEAR     72  36  26 CALM      30.24S
MORRISTOWN     CLEAR     68  45  42 NW5       30.25S
JACKSBORO      CLEAR     70  50  49 S5        30.28S
$$

TNZ083-085-099-192300-
SOUTHEAST TENNESSEE

CITY           SKY/WX    TMP DP  RH WIND       PRES   REMARKS
CHATTANOOGA    MOSUNNY   73  43  33 E5        30.24F
DAYTON         CLEAR     72  46  40 CALM      30.24S
$$

SKY/WX REPORTED AS FAIR MEANS FEW OR NO CLOUDS BELOW
12 THOUSAND FEET.




USA.gov is the U.S. government's official web portal to all federal, state and local government web resources and services.